STARLINK-11234, 60400

Orbit data source: Space-Track

STARLINK-11234, 60400 is a payload satellite owned by SpaceX/Seattle (US) in LEO that was launched on Sat, 10 Aug 2024 UTC via an FALCON 9 launch vehicle from the Air Force Eastern Test Range (AFETR). Payload-class satellites include a variety of spacecraft equipped with specific instruments for various scientific and technological missions. These include communications satellites like Starlink; space stations such as the ISS; scientific satellites like the Hubble; Earth observation satellites from companies like Planet Labs, Umbra, and HawkEye 360; GPS; miniature CubeSats for education and research; and military/defense satellites.

Loading next visibility...
Identifier
60400, 2024-141C
Orbit
LEO
Last TLE update
18 hours ago
Origin
Manufacturer
SpaceX/Seattle
Mission
Operational Commercial Communications
Bus & Motor
STARLINK V2M, Unknown motor
Mass
730 kg wet, ~700 kg dry
Launch date (UTC)
2024-08-10 (11 months ago)
Launch vehicle
FALCON 9
Launch site
Air Force Eastern Test Range (AFETR)
Object type
Payload
Rocket body
Debris
Shape & HBR
Box + 2 Pan, 29 m
Radar Cross Section
36.964 m², Large (>1 m²)

Expand to show TLE details & history

TLE from 18 hours ago
0 STARLINK-11234
1 60400U 24141C   25186.38444745 -.00000602  00000-0 -11054-6 0  9990
2 60400  53.1587 225.1786 0001294  91.5233 268.5933 15.69705737 52857
Epoch: 2025-07-05T09:13Z
TLE epoch observation values (Epoch: 2025-07-05T09:13:36.259Z)
Latitude
-0.00004°
Longitude
163.15423°
Altitude
360.675 km
Speed
7.694 km/s
True Right ascension
15h 00m 42s
True Declination
0° 00' 00"
Sunlit
Object was in full shadow at epoch
Visualization orbit readout
Latitude
-53.10089°
Longitude
62.36145°
Altitude
379.045 km
Speed
7.682 km/s
Apparent Right ascension
05h 25m 00s
Apparent Declination
-53° 28' 22"
Sunlit
Object is in daylight
Visualization observer readout
Local Sidereal Time
15:06:44
Azimuth
228.211° WSW
Elevation
-63.068°
Doppler factor
1
Orbital elements
Apogee altitude
360.872 km
Perigee altitude
359.128 km
Semi-major axis
6,738.137 km
Eccentricity
0.00013
Inclination
53.1587°
RAAN
225.1786°
Arg. of periapsis
91.5233°
True anomaly
Unknown
Mean anomaly
268.5933°
Eccentric anomaly
Unknown
Mean motion
3.92404 °/min
Orbital period
91.74 mins
BSTAR
-1.1054e-7
Loading maneuver chart data...
Loading SW <> Apogee altitude chart data...
Loading historical data...
Loading historical data...
Loading historical data...
Loading historical data...
Loading historical data...
Loading historical data...
Loading historical data...

STARLINK-11234 Visibility forecast

Observer location: undefined°, undefined°

Span
Click to sort rows by Start time (UTC) header in descending order
Start Az.
Max El. time (UTC)
Max El. Az.
Max El.
End time (UTC)
End Az.
5 mins2025-07-06 05:16:46.080Z226.39° WSW2025-07-06 05:18:46.080Z199.278° SSW44.318°2025-07-06 05:21:46.080Z51.297° ENE
4 mins2025-07-06 11:41:46.080Z326.134° NNW2025-07-06 11:43:46.080Z47.653° ENE37.073°2025-07-06 11:45:46.080Z109.612° ESE
|